Time,TemperatureF,DewpointF,PressureIn,WindDirection,WindDirectionDegrees,WindSpeedMPH,WindSpeedGustMPH,Humidity,HourlyPrecipIn,Conditions,Clouds,dailyrainin,SoftwareType,DateUTC
2013-08-06 00:08:00,62.9,60.0,29.93,SSE,152,3.0,5.0,89,0.00,,,0.00,weatherlink.com 1.10,2013-08-06 04:08:00,
2013-08-06 00:23:00,63.0,60.0,29.93,SE,124,5.0,5.0,89,0.00,,,0.00,weatherlink.com 1.10,2013-08-06 04:23:00,
2013-08-06 00:39:00,63.2,60.0,29.93,ESE,123,4.0,8.0,89,0.00,,,0.00,weatherlink.com 1.10,2013-08-06 04:39:00,
2013-08-06 00:54:00,63.4,60.0,29.93,South,172,4.0,7.0,89,0.00,,,0.00,weatherlink.com 1.10,2013-08-06 04:54:00,
2013-08-06 01:09:00,63.7,61.0,29.92,SSE,157,3.0,5.0,89,0.00,,,0.00,weatherlink.com 1.10,2013-08-06 05:09:00,
2013-08-06 01:24:00,64.0,60.0,29.92,SSE,155,3.0,7.0,88,0.00,,,0.00,weatherlink.com 1.10,2013-08-06 05:24:00,
2013-08-06 01:39:00,64.3,61.0,29.91,SE,134,4.0,6.0,88,0.00,,,0.00,weatherlink.com 1.10,2013-08-06 05:39:00,
2013-08-06 01:54:00,64.3,61.0,29.91,SSE,152,3.0,5.0,88,0.00,,,0.00,weatherlink.com 1.10,2013-08-06 05:54:00,
2013-08-06 02:09:00,64.1,61.0,29.90,SE,134,3.0,4.0,88,0.00,,,0.00,weatherlink.com 1.10,2013-08-06 06:09:00,
2013-08-06 02:24:00,63.9,60.0,29.90,SSE,149,3.0,5.0,88,0.00,,,0.00,weatherlink.com 1.10,2013-08-06 06:24:00,
2013-08-06 02:39:00,63.8,60.0,29.90,SE,139,2.0,5.0,88,0.00,,,0.00,weatherlink.com 1.10,2013-08-06 06:39:00,
2013-08-06 02:54:00,63.7,60.0,29.90,SSE,147,3.0,4.0,88,0.00,,,0.00,weatherlink.com 1.10,2013-08-06 06:54:00,
2013-08-06 03:09:00,63.7,60.0,29.90,SE,134,3.0,4.0,87,0.00,,,0.00,weatherlink.com 1.10,2013-08-06 07:09:00,
2013-08-06 03:24:00,64.2,60.0,29.91,SSE,153,3.0,5.0,86,0.00,,,0.00,weatherlink.com 1.10,2013-08-06 07:24:00,
2013-08-06 03:39:00,64.6,60.0,29.91,SE,146,3.0,4.0,86,0.00,,,0.00,weatherlink.com 1.10,2013-08-06 07:39:00,
2013-08-06 03:54:00,65.0,60.0,29.91,SSE,150,2.0,4.0,85,0.00,,,0.00,weatherlink.com 1.10,2013-08-06 07:54:00,
2013-08-06 04:09:00,65.3,60.0,29.90,South,178,3.0,5.0,84,0.00,,,0.00,weatherlink.com 1.10,2013-08-06 08:09:00,
2013-08-06 04:24:00,65.4,60.0,29.89,SSE,158,5.0,7.0,83,0.00,,,0.00,weatherlink.com 1.10,2013-08-06 08:24:00,
2013-08-06 04:39:00,65.4,60.0,29.88,SSE,163,3.0,7.0,83,0.00,,,0.00,weatherlink.com 1.10,2013-08-06 08:39:00,
2013-08-06 04:54:00,65.5,60.0,29.88,SSE,162,3.0,8.0,83,0.00,,,0.00,weatherlink.com 1.10,2013-08-06 08:54:00,
2013-08-06 05:09:00,65.6,60.0,29.88,South,176,3.0,6.0,83,0.00,,,0.00,weatherlink.com 1.10,2013-08-06 09:09:00,
2013-08-06 05:24:00,65.6,60.0,29.88,SSE,154,2.0,4.0,83,0.00,,,0.00,weatherlink.com 1.10,2013-08-06 09:24:00,
2013-08-06 05:39:00,65.6,60.0,29.88,SE,145,1.0,3.0,83,0.00,,,0.00,weatherlink.com 1.10,2013-08-06 09:39:00,
2013-08-06 05:54:00,65.4,60.0,29.88,SE,143,3.0,5.0,83,0.00,,,0.00,weatherlink.com 1.10,2013-08-06 09:54:00,
2013-08-06 06:09:00,65.1,60.0,29.88,South,176,2.0,5.0,84,0.00,,,0.00,weatherlink.com 1.10,2013-08-06 10:09:00,
2013-08-06 06:24:00,65.2,60.0,29.89,SE,132,2.0,5.0,84,0.00,,,0.00,weatherlink.com 1.10,2013-08-06 10:24:00,
2013-08-06 06:39:00,65.2,60.0,29.89,SSE,149,2.0,3.0,84,0.00,,,0.00,weatherlink.com 1.10,2013-08-06 10:39:00,
2013-08-06 06:54:00,65.2,60.0,29.90,South,188,3.0,5.0,84,0.00,,,0.00,weatherlink.com 1.10,2013-08-06 10:54:00,
2013-08-06 07:09:00,65.2,60.0,29.90,SSE,162,3.0,6.0,84,0.00,,,0.00,weatherlink.com 1.10,2013-08-06 11:09:00,
2013-08-06 07:24:00,65.3,60.0,29.90,SSE,160,3.0,6.0,84,0.00,,,0.00,weatherlink.com 1.10,2013-08-06 11:24:00,
2013-08-06 07:39:00,65.5,61.0,29.90,South,190,3.0,9.0,84,0.00,,,0.00,weatherlink.com 1.10,2013-08-06 11:39:00,
2013-08-06 07:54:00,65.9,61.0,29.91,SSW,198,4.0,7.0,83,0.00,,,0.00,weatherlink.com 1.10,2013-08-06 11:54:00,
2013-08-06 08:09:00,66.4,61.0,29.91,South,184,6.0,7.0,83,0.00,,,0.00,weatherlink.com 1.10,2013-08-06 12:09:00,
2013-08-06 08:24:00,66.9,61.0,29.91,SSE,160,3.0,5.0,82,0.00,,,0.00,weatherlink.com 1.10,2013-08-06 12:24:00,
2013-08-06 08:39:00,67.3,62.0,29.92,South,189,4.0,5.0,82,0.00,,,0.00,weatherlink.com 1.10,2013-08-06 12:39:00,
2013-08-06 08:54:00,67.5,62.0,29.91,SSW,195,6.0,7.0,82,0.00,,,0.00,weatherlink.com 1.10,2013-08-06 12:54:00,
2013-08-06 09:09:00,67.9,62.0,29.91,SSE,165,2.0,5.0,82,0.00,,,0.00,weatherlink.com 1.10,2013-08-06 13:09:00,
2013-08-06 09:24:00,68.2,63.0,29.91,SE,146,1.0,4.0,82,0.00,,,0.00,weatherlink.com 1.10,2013-08-06 13:24:00,
2013-08-06 09:39:00,68.4,63.0,29.91,South,191,3.0,5.0,82,0.00,,,0.00,weatherlink.com 1.10,2013-08-06 13:39:00,
2013-08-06 09:54:00,68.9,63.0,29.91,SE,135,3.0,5.0,82,0.00,,,0.00,weatherlink.com 1.10,2013-08-06 13:54:00,
2013-08-06 10:09:00,70.0,64.0,29.91,South,183,1.0,4.0,81,0.00,,,0.00,weatherlink.com 1.10,2013-08-06 14:09:00,
2013-08-06 10:24:00,70.6,64.0,29.91,SSE,150,2.0,6.0,80,0.00,,,0.00,weatherlink.com 1.10,2013-08-06 14:24:00,
2013-08-06 10:39:00,71.0,65.0,29.91,SSE,164,4.0,5.0,80,0.00,,,0.00,weatherlink.com 1.10,2013-08-06 14:39:00,
2013-08-06 10:55:00,71.8,65.0,29.91,SE,142,2.0,6.0,78,0.00,,,0.00,weatherlink.com 1.10,2013-08-06 14:55:00,
2013-08-06 11:10:00,72.2,65.0,29.91,South,190,3.0,8.0,78,0.00,,,0.00,weatherlink.com 1.10,2013-08-06 15:10:00,
2013-08-06 11:25:00,73.2,66.0,29.91,South,181,7.0,10.0,77,0.00,,,0.00,weatherlink.com 1.10,2013-08-06 15:25:00,
2013-08-06 11:40:00,73.6,66.0,29.90,South,179,6.0,14.0,77,0.00,,,0.00,weatherlink.com 1.10,2013-08-06 15:40:00,
2013-08-06 11:55:00,74.4,66.0,29.90,South,183,8.0,10.0,76,0.00,,,0.00,weatherlink.com 1.10,2013-08-06 15:55:00,
2013-08-06 12:10:00,74.6,67.0,29.89,SSE,159,7.0,12.0,76,0.00,,,0.00,weatherlink.com 1.10,2013-08-06 16:10:00,
2013-08-06 12:25:00,74.9,66.0,29.90,SW,231,3.0,13.0,74,0.00,,,0.00,weatherlink.com 1.10,2013-08-06 16:25:00,
2013-08-06 12:40:00,74.0,66.0,29.90,SW,235,7.0,10.0,77,0.00,,,0.00,weatherlink.com 1.10,2013-08-06 16:40:00,
2013-08-06 12:55:00,74.0,66.0,29.91,SSW,210,4.0,11.0,77,0.00,,,0.00,weatherlink.com 1.10,2013-08-06 16:55:00,
2013-08-06 13:10:00,73.6,67.0,29.91,SW,232,8.0,9.0,79,0.00,,,0.00,weatherlink.com 1.10,2013-08-06 17:10:00,
2013-08-06 13:25:00,73.6,67.0,29.91,SSW,195,4.0,8.0,80,0.00,,,0.00,weatherlink.com 1.10,2013-08-06 17:25:00,
2013-08-06 13:40:00,74.6,67.0,29.91,SSE,167,3.0,8.0,78,0.00,,,0.00,weatherlink.com 1.10,2013-08-06 17:40:00,
2013-08-06 13:55:00,74.4,68.0,29.90,SSW,197,5.0,9.0,79,0.00,,,0.00,weatherlink.com 1.10,2013-08-06 17:55:00,
2013-08-06 14:10:00,74.5,68.0,29.90,SSW,203,3.0,10.0,79,0.00,,,0.00,weatherlink.com 1.10,2013-08-06 18:10:00,
2013-08-06 14:25:00,74.9,68.0,29.90,SW,219,5.0,7.0,79,0.00,,,0.00,weatherlink.com 1.10,2013-08-06 18:25:00,
2013-08-06 14:40:00,75.5,68.0,29.89,SSE,161,4.0,6.0,78,0.00,,,0.00,weatherlink.com 1.10,2013-08-06 18:40:00,
2013-08-06 14:55:00,75.0,68.0,29.89,SW,218,7.0,8.0,79,0.00,,,0.00,weatherlink.com 1.10,2013-08-06 18:55:00,
2013-08-06 15:10:00,75.5,69.0,29.89,SSW,194,4.0,8.0,79,0.00,,,0.00,weatherlink.com 1.10,2013-08-06 19:10:00,
2013-08-06 15:25:00,76.2,69.0,29.89,South,176,4.0,8.0,79,0.00,,,0.00,weatherlink.com 1.10,2013-08-06 19:25:00,
2013-08-06 15:40:00,76.5,69.0,29.89,SSW,197,3.0,8.0,77,0.00,,,0.00,weatherlink.com 1.10,2013-08-06 19:40:00,
2013-08-06 15:55:00,76.7,69.0,29.88,SSE,155,5.0,8.0,77,0.00,,,0.00,weatherlink.com 1.10,2013-08-06 19:55:00,
2013-08-06 16:10:00,77.1,69.0,29.88,SSW,205,3.0,8.0,76,0.00,,,0.00,weatherlink.com 1.10,2013-08-06 20:10:00,
2013-08-06 16:25:00,77.2,69.0,29.88,SSW,195,4.0,6.0,76,0.00,,,0.00,weatherlink.com 1.10,2013-08-06 20:25:00,
2013-08-06 16:40:00,76.7,69.0,29.89,SSW,198,2.0,7.0,77,0.00,,,0.00,weatherlink.com 1.10,2013-08-06 20:40:00,
2013-08-06 16:55:00,76.6,69.0,29.88,South,176,6.0,9.0,78,0.00,,,0.00,weatherlink.com 1.10,2013-08-06 20:55:00,
2013-08-06 17:10:00,76.8,69.0,29.88,South,173,9.0,11.0,78,0.00,,,0.00,weatherlink.com 1.10,2013-08-06 21:10:00,
2013-08-06 17:25:00,77.0,70.0,29.88,SSW,211,2.0,11.0,78,0.00,,,0.00,weatherlink.com 1.10,2013-08-06 21:25:00,
2013-08-06 17:40:00,77.7,70.0,29.88,SSW,210,7.0,10.0,76,0.00,,,0.00,weatherlink.com 1.10,2013-08-06 21:40:00,
2013-08-06 17:55:00,78.5,70.0,29.87,SSW,203,5.0,8.0,74,0.00,,,0.00,weatherlink.com 1.10,2013-08-06 21:55:00,
2013-08-06 18:10:00,79.3,70.0,29.87,SW,222,3.0,6.0,72,0.00,,,0.00,weatherlink.com 1.10,2013-08-06 22:10:00,
2013-08-06 18:25:00,78.8,70.0,29.87,SSW,207,7.0,8.0,74,0.00,,,0.00,weatherlink.com 1.10,2013-08-06 22:25:00,
2013-08-06 18:40:00,78.6,70.0,29.87,SSW,203,8.0,9.0,74,0.00,,,0.00,weatherlink.com 1.10,2013-08-06 22:40:00,
2013-08-06 18:55:00,78.5,70.0,29.86,SW,218,5.0,8.0,76,0.00,,,0.00,weatherlink.com 1.10,2013-08-06 22:55:00,
2013-08-06 19:10:00,78.4,70.0,29.86,South,180,6.0,9.0,76,0.00,,,0.00,weatherlink.com 1.10,2013-08-06 23:10:00,
2013-08-06 19:25:00,78.4,70.0,29.87,SSW,200,4.0,9.0,76,0.00,,,0.00,weatherlink.com 1.10,2013-08-06 23:25:00,
2013-08-06 19:40:00,78.3,71.0,29.87,SSW,207,2.0,7.0,77,0.00,,,0.00,weatherlink.com 1.10,2013-08-06 23:40:00,
2013-08-06 19:55:00,78.1,70.0,29.87,SSW,205,1.0,7.0,77,0.00,,,0.00,weatherlink.com 1.10,2013-08-06 23:55:00,
2013-08-06 20:10:00,78.0,70.0,29.87,SSW,212,1.0,3.0,77,0.00,,,0.00,weatherlink.com 1.10,2013-08-07 00:10:00,
2013-08-06 20:25:00,77.5,70.0,29.87,South,170,3.0,5.0,78,0.00,,,0.00,weatherlink.com 1.10,2013-08-07 00:25:00,
2013-08-06 20:40:00,76.6,70.0,29.87,South,186,2.0,4.0,80,0.00,,,0.00,weatherlink.com 1.10,2013-08-07 00:40:00,
2013-08-06 20:55:00,75.8,70.0,29.87,South,169,2.0,3.0,82,0.00,,,0.00,weatherlink.com 1.10,2013-08-07 00:55:00,
2013-08-06 21:10:00,75.2,70.0,29.87,SSE,164,2.0,3.0,83,0.00,,,0.00,weatherlink.com 1.10,2013-08-07 01:10:00,
2013-08-06 21:25:00,74.8,70.0,29.87,SSE,149,2.0,4.0,84,0.00,,,0.00,weatherlink.com 1.10,2013-08-07 01:25:00,
2013-08-06 21:40:00,74.2,70.0,29.87,South,169,3.0,4.0,85,0.00,,,0.00,weatherlink.com 1.10,2013-08-07 01:40:00,
2013-08-06 21:55:00,73.5,69.0,29.87,SSE,153,2.0,5.0,86,0.00,,,0.00,weatherlink.com 1.10,2013-08-07 01:55:00,
2013-08-06 22:10:00,73.0,69.0,29.87,South,190,4.0,6.0,87,0.00,,,0.00,weatherlink.com 1.10,2013-08-07 02:10:00,
2013-08-06 22:25:00,72.6,69.0,29.87,SSE,158,2.0,5.0,87,0.00,,,0.00,weatherlink.com 1.10,2013-08-07 02:25:00,
2013-08-06 22:40:00,72.5,69.0,29.87,SSE,165,2.0,3.0,88,0.00,,,0.00,weatherlink.com 1.10,2013-08-07 02:40:00,
2013-08-06 22:55:00,72.3,69.0,29.87,SSE,162,2.0,3.0,88,0.00,,,0.00,weatherlink.com 1.10,2013-08-07 02:55:00,
2013-08-06 23:10:00,72.0,69.0,29.87,SSE,155,1.0,3.0,89,0.00,,,0.00,weatherlink.com 1.10,2013-08-07 03:10:00,
2013-08-06 23:25:00,71.6,68.0,29.87,SSE,148,0.0,2.0,89,0.00,,,0.00,weatherlink.com 1.10,2013-08-07 03:25:00,
2013-08-06 23:40:00,71.3,68.0,29.88,SSE,149,0.0,1.0,90,0.00,,,0.00,weatherlink.com 1.10,2013-08-07 03:40:00,
2013-08-06 23:55:00,71.4,68.0,29.88,SSE,153,1.0,2.0,90,0.00,,,0.00,weatherlink.com 1.10,2013-08-07 03:55:00,